Galveston Weather Center

Moon Phase Calendar



Online Cameras

 


      

Current Conditions in Texas City
10/20/2021 4:45:40 PM

82°F
Feels Like 90
Clouds
Humidity
81%
Pressure
30.06"
Wind
11.5 mph (E)
Dew Point
76°F
UV Index
1/10 (Low)
Visibility
6 mi

Hourly Forecast

Date & Time Wed, Oct 20
4:00 PM
Wed, Oct 20
5:00 PM
Wed, Oct 20
6:00 PM
Wed, Oct 20
7:00 PM
Wed, Oct 20
8:00 PM
Wed, Oct 20
9:00 PM
Wed, Oct 20
10:00 PM
Wed, Oct 20
11:00 PM
Thu, Oct 21
12:00 AM
Thu, Oct 21
1:00 AM
Thu, Oct 21
2:00 AM
Thu, Oct 21
3:00 AM
Thu, Oct 21
4:00 AM
Thu, Oct 21
5:00 AM
Thu, Oct 21
6:00 AM
Thu, Oct 21
7:00 AM
Thu, Oct 21
8:00 AM
Thu, Oct 21
9:00 AM
Thu, Oct 21
10:00 AM
Thu, Oct 21
11:00 AM
Thu, Oct 21
12:00 PM
Thu, Oct 21
1:00 PM
Thu, Oct 21
2:00 PM
Thu, Oct 21
3:00 PM
Thu, Oct 21
4:00 PM
Thu, Oct 21
5:00 PM
Thu, Oct 21
6:00 PM
Thu, Oct 21
7:00 PM
Thu, Oct 21
8:00 PM
Thu, Oct 21
9:00 PM
Thu, Oct 21
10:00 PM
Thu, Oct 21
11:00 PM
Fri, Oct 22
12:00 AM
Fri, Oct 22
1:00 AM
Fri, Oct 22
2:00 AM
Fri, Oct 22
3:00 AM
Fri, Oct 22
4:00 AM
Fri, Oct 22
5:00 AM
Fri, Oct 22
6:00 AM
Fri, Oct 22
7:00 AM
Fri, Oct 22
8:00 AM
Fri, Oct 22
9:00 AM
Fri, Oct 22
10:00 AM
Fri, Oct 22
11:00 AM
Fri, Oct 22
12:00 PM
Fri, Oct 22
1:00 PM
Fri, Oct 22
2:00 PM
Fri, Oct 22
3:00 PM
Condition
Clouds

Clouds

Clouds

Clouds

Clouds

Clouds

Clouds

Clouds

Clouds

Clouds

Clouds

Clouds

Clouds

Clouds

Clouds

Clouds

Clouds

Clear

Clear

Clear

Clear

Clear

Clouds

Clouds

Clouds

Clouds

Clouds

Clouds

Clear

Clear

Clouds

Clouds

Clouds

Clouds

Clouds

Clouds

Clouds

Rain

Rain

Clouds

Clouds

Clouds

Clouds

Clouds

Clouds

Clouds

Clouds

Clouds
Temperature 81°F82°F81°F80°F79°F78°F77°F77°F77°F76°F76°F76°F76°F76°F75°F75°F75°F75°F76°F76°F76°F77°F77°F77°F77°F77°F77°F77°F76°F76°F76°F76°F76°F76°F76°F76°F76°F75°F75°F76°F76°F76°F76°F77°F77°F77°F77°F77°F
Feels Like 88°F90°F88°F85°F79°F79°F78°F78°F78°F78°F78°F77°F77°F77°F77°F76°F76°F77°F77°F77°F78°F78°F78°F78°F78°F79°F78°F78°F78°F78°F78°F78°F78°F78°F78°F77°F77°F77°F77°F77°F77°F77°F78°F78°F78°F78°F79°F78°F
Cloudiness 41%40%40%38%35%50%68%56%52%56%46%30%34%29%25%22%11%9%9%8%8%10%59%34%49%53%62%64%6%8%34%51%60%61%64%32%21%16%14%13%21%17%26%29%30%39%85%87%
Visibility 6 mi6 mi6 mi6 mi6 mi6 mi6 mi6 mi6 mi6 mi6 mi6 mi6 mi6 mi6 mi6 mi6 mi6 mi6 mi6 mi6 mi6 mi6 mi6 mi6 mi6 mi6 mi6 mi6 mi6 mi6 mi6 mi6 mi6 mi6 mi6 mi6 mi6 mi6 mi6 mi6 mi6 mi6 mi6 mi6 mi6 mi6 mi6 mi
Precipitation 1%1%1%1%0%0%0%0%0%0%0%0%0%0%0%0%0%0%0%0%0%0%0%0%0%0%0%0%0%0%0%0%0%0%6%24%37%52%52%45%11%14%5%5%12%21%4%3%
Humidity 82%81%82%83%84%85%86%86%86%86%86%86%86%86%85%84%83%82%81%81%80%80%80%79%79%79%81%84%86%87%87%88%89%90%90%91%90%89%89%89%89%87%86%85%84%83%83%83%
Dew Point 75°F76°F75°F75°F74°F73°F72°F72°F72°F72°F72°F72°F71°F71°F71°F70°F70°F70°F70°F70°F70°F70°F70°F70°F70°F70°F71°F71°F72°F72°F72°F72°F73°F73°F73°F73°F73°F72°F72°F72°F72°F72°F72°F72°F72°F72°F72°F72°F
Pressure 30.06"30.06"30.06"30.03"30.03"30.03"30.06"30.06"30.06"30.03"30.03"30.03"30.03"30.03"30.06"30.06"30.09"30.09"30.12"30.12"30.09"30.09"30.06"30.03"30.03"30.03"30.03"30.03"30.06"30.06"30.06"30.03"30.03"30.03"30.03"30.03"30"30"30"30"30.03"30.03"30.06"30.06"30.03"30"30"29.97"
Wind Speed 7.5 mph6.6 mph6.5 mph7.2 mph7.8 mph8.1 mph8.3 mph8.3 mph8.6 mph7.2 mph7.2 mph5.4 mph4.8 mph3.9 mph3.2 mph2.1 mph1.7 mph2.2 mph3.1 mph3.7 mph2.9 mph2.6 mph3.7 mph5 mph5.4 mph5.6 mph5.8 mph6.2 mph6.2 mph7.3 mph8.2 mph8.2 mph7.2 mph6.4 mph5.8 mph4.7 mph4.7 mph3.7 mph2.7 mph1.7 mph1.9 mph4.7 mph6.4 mph6.7 mph6.7 mph8.6 mph9.8 mph9.7 mph
Wind
Direction
133°
SE
138°
SE
139°
SE
131°
SE
128°
SE
135°
SE
144°
SE
148°
SSE
152°
SSE
154°
SSE
165°
SSE
181°
S
197°
SSW
214°
SW
244°
WSW
280°
W
303°
WNW
357°
N

N
27°
NNE
49°
NE
87°
E
128°
SE
145°
SE
154°
SSE
149°
SSE
150°
SSE
153°
SSE
154°
SSE
155°
SSE
154°
SSE
159°
SSE
165°
SSE
174°
S
170°
S
168°
SSE
159°
SSE
172°
S
168°
SSE
141°
SE
87°
E
84°
E
86°
E
98°
E
110°
ESE
125°
SE
132°
SE
126°
SE

Daily Forecast

Date High Low Precip. Humidity
Today
Oct 20

Clouds
82 °F
75 °F
31%
85%
Thursday
Oct 21

Clear
77 °F
75 °F
0%
80%
Friday
Oct 22

Rain
77 °F
75 °F
52%
83%
Saturday
Oct 23

Rain
77 °F
76 °F
59%
84%
Sunday
Oct 24

Rain
78 °F
76 °F
74%
85%
Monday
Oct 25

Rain
78 °F
76 °F
41%
87%
Tuesday
Oct 26

Rain
76 °F
74 °F
100%
94%
Wednesday
Oct 27

Rain
78 °F
76 °F
100%
86%
Thursday
Oct 28

Rain
76 °F
70 °F
100%
81%
Friday
Oct 29

Rain
71 °F
66 °F
22%
55%
Saturday
Oct 30

Clear
65 °F
60 °F
0%
54%
Sunday
Oct 31

Clear
70 °F
65 °F
0%
57%
Monday
Nov 1

Clouds
70 °F
66 °F
0%
65%
Tuesday
Nov 2

Clear
70 °F
67 °F
0%
62%
Wednesday
Nov 3

Clear
71 °F
67 °F
0%
62%
Thursday
Nov 4

Clear
69 °F
63 °F
0%
59%

Temperature 8-14 Day Outlook



Precipitation 8-14 Day Outlook




Quick Links
Galveston News
Galveston Photos
Galveston Videos




About Us
Contact Us
Site Map
Search Site
Advertise With Us
   
Galveston.USGulf.info
THE GALVESTON WEBSITE

Copyright 2021, Coastal Town
Privacy    |    Legal